Location: Abraham Lincoln Continuation High School
(33.9711°N, 117.3662°W)
Time: 13:38:11
(UTC+00:00)

Cosmos 1680 Rocket - Pass Details

Date: 21 September 2020
Orbit: 760 x 781 km, 74.1° (Epoch: 28 October)

Event Time Altitude Azimuth Distance (km) Brightness Sun altitude
Rises 02:05:31 0° 344° (NNW) 3,231 7.0 -4.4°
Reaches altitude 10° 02:07:54 10° 346° (NNW) 2,304 6.2 -4.9°
Maximum altitude 02:13:08 79° 72° (ENE) 784 3.5 -6.0°
Drops below altitude 10° 02:18:22 10° 160° (SSE) 2,304 5.7 -7.1°
Sets 02:20:45 0° 162° (SSE) 3,231 6.5 -7.6°
